Location: ??
(34.9170°N, 135.5016°E)
Time: 11:33:09
(UTC+00:00)

Explorer 7 - Pass Details

Date: 05 March 2021
Orbit: 484 x 677 km, 50.3° (Epoch: 18 April)

Event Time Altitude Azimuth Distance (km) Brightness Sun altitude
Rises 08:31:56 0° 318° (NW) 2,792 10.9 4.2°
Reaches altitude 10° 08:35:23 10° 346° (NNW) 1,841 9.6 3.6°
Maximum altitude 08:37:25 13° 15° (NNE) 1,618 9.0 3.1°
Drops below altitude 10° 08:39:23 10° 45° (NE) 1,783 9.0 2.7°
Sets 08:42:37 0° 73° (ENE) 2,628 9.6 2.1°
